Regional Weather Roundup
Issued by NWS Wakefield, VA

Home | Current Version | Previous Version | Text Only | Print | Product List | Glossary Off
Versions: 1 2 3 4 5 6 7 8 9 10 11 12 13 14 15 16 17 18 19 20 21 22 23 24 25 26 27

000
ASUS41 KAKQ 200715
RWRAKQ

REGIONAL WEATHER ROUNDUP
NATIONAL WEATHER SERVICE WAKEFIELD VA
200 AM EST FRI JAN 20 2017

Note: "fair" indicates few or no clouds below 12,000 feet with no
significant weather and/or obstructions to visibility. * = Denotes
station may not report precipitation (e.g., rain,snow,etc.),
thunder or fog.

VAZ042-051-052>054-056-200800-
NORTHERN VIRGINIA

CITY           SKY/WX    TMP DP  RH WIND       PRES   REMARKS
WASH NATIONAL  CLOUDY    40  38  93 CALM      30.02R
DULLES         CLOUDY    34  32  92 CALM      29.99S
FORT BELVOIR   CLOUDY    34  33  94 CALM      30.01S
QUANTICO       CLOUDY    38  37  97 CALM      30.03S
FREDERICKSBRG* MOCLDY    38  38 100 CALM      30.00F
STAFFORD*      PTCLDY    33  33 100 CALM      30.04F
WARRENTON      CLOUDY    34  32  92 CALM      29.99F
CULPEPER*      CLOUDY    34  34  99 CALM      30.01R
MANASSAS*      NOT AVBL
LEESBURG*      PTCLDY    36  36 100 MISG      30.00F
WINCHESTER     PTCLDY    36  34  93 CALM      29.95F
FRONT ROYAL*   FAIR      36  34  93 CALM      29.95S
LURAY*         FAIR      37  37 100 CALM      29.95F
$$

VAZ048-049-060>072-079>083-200800-
CENTRAL AND SOUTH CENTRAL VIRGINIA

CITY           SKY/WX    TMP DP  RH WIND       PRES   REMARKS
RICHMOND       CLOUDY    41  38  89 SE3       30.00F
CHESTERFIELD*  FAIR      43  25  49 SE5       30.01F
PETERSBURG*    CLOUDY    41  37  87 CALM      30.00F
HANOVER        PTCLDY    41  36  82 CALM      30.01F
TAPPAHANNOCK*  PTCLDY    39  38  94 CALM      30.02S
QUINTON*       FAIR      39  38  95 MISG      30.00F
CHARLOTTSVILLE CLOUDY    43  38  82 CALM      29.97F
GORDONSVILLE*  FAIR      37  37  99 CALM      29.98S
ORANGE*          N/A     37  37 100 CALM      30.01S
LOUISA*        PTCLDY    43  39  87 CALM      29.97F
BUMPASS*       FAIR      38  38  99 CALM      29.99S
FARMVILLE*     CLOUDY    41  40  96 CALM      29.96S
CREWE*         FAIR      38  38 100 CALM      29.97F
FORT PICKETT*  FAIR      42  39  88 S7        29.98F
CHASE CITY*    FAIR      44  42  95 CALM      29.96F
CLARKSVILLE*   FAIR      43  43 100 E3        29.96F
SOUTH HILL*    CLOUDY    42  40  93 CALM      30.03F
LAWRENCEVILLE* FAIR      42  40  89 MISG      29.98F
EMPORIA*       CLOUDY    36  36 100 CALM      30.02S
$$

VAZ088>098-200800-
SOUTHEAST VIRGINIA

CITY           SKY/WX    TMP DP  RH WIND       PRES   REMARKS
NORFOLK        CLOUDY    40  37  89 CALM      30.02F
VIRGINIA BEACH CLOUDY    37  34  89 E3        30.02S
NORFOLK NAVAL  CLOUDY    41  38  89 SE6       30.02F FOG
WEST POINT*    CLOUDY    38  37  94 E5        30.03F
SALUDA*        FAIR      38  37  97 S3        30.02S
NEWPORT NEWS   CLOUDY    37  35  92 E5        30.01F
LANGLEY AFB    CLOUDY    39  38  98 CALM      30.01F
FORT EUSTIS    CLOUDY    40  38  89 CALM      29.99F
WILLIAMSBURG*  CLOUDY    43  39  87 CALM      30.02F
HR EXEC AP*    FAIR      36  34  93 CALM      30.00F
FRANKLIN*      CLOUDY    41  39  93 S3        30.02F
US460-WAKEFLD  PTCLDY    41  39  93 CALM      30.01F
$$

VAZ020-022-025-037-045-200800-
WEST CENTRAL AND SOUTHWEST VIRGINIA

CITY           SKY/WX    TMP DP  RH WIND       PRES   REMARKS
STAUNTON*      CLOUDY    38  37  94 CALM      29.96F
WAYNESBORO*    PTSUNNY   45  37  76 CALM      29.94F
HOT SPRINGS VA CLOUDY    43  32  65 S7        29.88F
LYNCHBURG      CLOUDY    44  39  82 CALM      29.96F
DANVILLE       CLOUDY    42  40  92 E5        29.95F
SOUTH BOSTON*  FAIR      42  40  95 CALM      29.96S
MARTINSVILLE   CLOUDY    40  38  89 CALM      29.96S
ROANOKE        CLOUDY    47  39  74 CALM      29.94F
BLACKSBURG     CLOUDY    46  39  76 E7        29.93F
DUBLIN*        CLOUDY    46  39  77 CALM      29.91F
MARION*        CLOUDY    49  39  67 NE6       29.89F
HILLSVILLE*    CLOUDY    48  38  69 CALM      29.89F
RICHLANDS*     FAIR     N/A N/A N/A E6G16     29.82F
WISE*          LGT RAIN  55  43  62 S12G20    29.78F
ABINGDON*      CLOUDY    54  42  64 CALM      29.83R
$$

MDZ021>025-VAZ099-100-200800-
SOUTHERN MARYLAND AND THE DELMARVA PENINSULA

CITY           SKY/WX    TMP DP  RH WIND       PRES   REMARKS
PATUXENT RIVER PTCLDY    34  33  96 CALM      30.02R
BAY BRIDGE APT PTCLDY    34  34 100 CALM      30.02R
LEONARDTOWN    PTCLDY    36  34  93 CALM      30.03S
DOVER          PTCLDY    32  32 100 CALM      30.02R
GEORGETOWN     PTCLDY    33  31  92 CALM      30.02F FOG
EASTON         PTCLDY    35  32  91 CALM      30.05S
CAMBRIDGE      PTCLDY    32  32 100 CALM      30.02R
SALISBURY      PTCLDY    32  31  96 CALM      30.01F
OCEAN CITY     CLOUDY    33  33 100 CALM      30.02F
WALLOPS ISLAND PTCLDY    35  35 100 CALM      30.02S
ACCOMACK*      PTCLDY    34  33  96 SW3       30.03R
$$

NCZ012>017-030>032-200800-
NORTH CENTRAL AND EASTERN NORTH CAROLINA

CITY           SKY/WX    TMP DP  RH WIND       PRES   REMARKS
ROANOKE RAPIDS FAIR      39  39 100 CALM      29.99F
RALEIGH        CLOUDY    48  42  80 SE6       29.96F
ELIZABETH CITY CLOUDY    42  41  96 SE3       30.03S
AHOSKIE*         N/A     41  40  97 CALM      30.01F
EDENTON*       CLOUDY    44  41  91 CALM      30.03S
CURRITUCK*     CLOUDY    39  39 100 CALM      30.02F FOG
KILL DEVIL HLS NOT AVBL
MANTEO         CLOUDY    40  40 100 NE5       30.03F FOG
CAPE HATTERAS  MOCLDY    47  43  86 NE6       30.01F
TARBORO*       NOT AVBL
GOLDSBORO      CLOUDY    43  43 100 E3        29.97F
WASHINGTON     CLOUDY    42  42  97 CALM        N/A  FOG
GREENVILLE     CLOUDY    45  45 100 CALM      30.01S
NEW BERN       CLOUDY    44  41  89 CALM      30.01F
WILMINGTON     MOCLDY    45  45 100 CALM      29.99R
$$

VAZ048-200800-
ELSEWHERE

CITY           SKY/WX    TMP DP  RH WIND       PRES   REMARKS
HARRISBURG PA  CLOUDY    31  30  96 CALM      30.00S
BALTIMORE      CLOUDY    33  33 100 CALM      30.01S
ANNAPOLIS      CLOUDY    37  34  89 CALM      30.01S
ANDREWS AFB    CLOUDY    35  33  92 S5        30.00R
PHILADELPHIA   PTCLDY    35  32  88 CALM      30.05R
HENDERSON NC   CLOUDY    44  38  80 CALM      29.96F
GREENSBORO     CLOUDY    48  40  73 S5        29.93S
ROCKY MOUNT    CLOUDY    45  43  93 CALM      29.99S
$$

VAZ100-200800-
MARINE

STATION/POSITION TIME  TEMP    WIND        PRES    WAVE   SWELL
                       AIR SEA DIR/SP/G            HT/PER HT/PER
                 (UTC) (F)     (DEG/KT/KT) (MB)    (FT/S) (FT/S)
CAPE MAY NJ      0648   37 42   CALM  /  1 1016.4R
LEWES DE         0648   39 42  100/  1/  2 1016.6F
OCEAN-CITY-INLET 0648   39 42   CALM  /  1 1016.8F
WACHAPREAGUE VA  0648   38 47  270/  3/  4 1016.9R
THOMAS POINT MD  0700   39 40  140/  5/  5   N/A
GOOSES REEF MD   0700   39     130/  2/  4 1017.2    0
COVE POINT MD    0648   40     180/  4/  4 1017.1R
SOLOMONS ISLAND  0648   37 41     CALM       N/A
BISHOPS HEAD MD  0648   40 45  110/  3/  3 1016.8R
PINEY POINT MD   0648          160/  2/  2   N/A
POTOMAC MD       0700   40 41   CALM  /  2 1015.8    0
CAMBRIDGE MD     0648   37 40  200/  1/  3 1015.9R
LEWISETTA VA     0648   41 44  210/  4/  4 1016.4R
RAPPAHANNOCK LGT 0648          190/  4/  4 1017.4R
STINGRAY PT      0650   41     230/  6/  6 1017.1R
YORK RVR RNG VA  0648   43     180/  6/  6 1016.1S
YORKTOWN VA      0648   42 42  160/  4/  5 1016.2F
JAMESTOWN VA     0700   43 45  120/  6/  6   N/A
DOMINION TERM VA 0648   43     110/  5/  6 1016.3F
KIPTOPEKE VA     0648      44  190/  4/  6   N/A
CHES BAY BRIDGE  0648   43 45  180/  5/  5 1016.9R
CAPE HENRY VA    0648   43     190/  7/  8   N/A
WILLOUBY STN VA  0648   43     120/  5/  6 1017.3F
S CRANEY ISL VA  0648   43     110/  5/  6 1016.3F
CAPE HENRY BUOY  0642      48                N/A     4/11   2/11
OFFSHORE WE BUOY 0651      49                N/A     4/11   3/11
64NM E OF VA BCH 0650   51 55   70/  6/  8 1016.2S   6/11   5/11
DUCK PIER NC     0648   45 45  100/  5/  5 1016.1F
44100 DUCK FRF   0605      47                N/A     5/11   3/11
44056 DUCK FRF   0630      45                N/A     4/11   3/11
OREGON INLET NC  0642   45 49   20/  5/  6 1016.7S
HATTERAS NC      0648   47 55   60/  3/  4 1015.8F
DIAMOND SHLS NC  0650   57 76  360/  4/  8 1016.2F   4/10   5/10
CAPE LOOKOUT NC  0600   55      20/  1/  3 1015.3F
$$




USA.gov is the U.S. government's official web portal to all federal, state and local government web resources and services.